Location: Christian Reformed Church
(43.0975°N, 93.8113°W)
Time: 18:04:18
(UTC+00:00)

ARIANE 6 FM1 Upper Stage - Pass Details

Date: 13 December 2025
Orbit: 522 x 610 km, 62.0° (Epoch: 15 January)

Event Time Altitude Azimuth Distance (km) Brightness Sun altitude
Rises 12:55:31 0° 213° (SSW) 2,695 6.1 -7.8°
Reaches altitude 10° 12:57:44 10° 211° (SSW) 1,794 5.2 -7.4°
Maximum altitude 13:01:45 76° 126° (SE) 553 2.8 -6.7°
Drops below altitude 10° 13:05:43 10° 41° (NE) 1,772 5.4 -6.1°
Sets 13:07:54 0° 40° (NE) 2,660 6.3 -5.7°
